Weather in Vybor

Russia / Pskov Oblast     57°13′38″N   29°09′44″E
temp.,
°C
wind,
m/s
gust,
m/s
humid.,
%
clouds,
%
prec.,
mm/h
press.,
hPa
HPBL,
m
12 april, mon
mon1200:00+6ese3894100 0.0 1026159
03:00+6se2792100 0.0 1027132
06:00+6se3118796 0.0 1026209
09:00+10sse41369100 0.0 1026512
12:00+15sse5105019 0.0 10251218
15:00+16sse59423 0.0 10231655
18:00+15se48470 0.0 10221349
21:00+9se3969100 0.0 1022168
13 april, tue
tue1300:00+8se3974100 0.0 1021270
03:00+6se2787100 0.0 1021159
06:00+5se239518 0.0 102053
09:00+10s247661 0.0 1020310
12:00+15ssw245339 0.0 1020892
15:00+17sw244543 0.0 10191714
18:00+13nw3565100 0.0 1018206
21:00+7nnw4886100 0.0 1020307
14 april, wed
wed1400:00+6nnw3791100 0.4 1019314
03:00+5nnw3893100 3.1 1018389
06:00+4n4994100 5.1 1017424
09:00+3nnw4995100 8.3 1018430
12:00+2n4996100 1.8 1019386
15:00+2n3898100 2.8 1020376
18:00+2n31097100 0.6 1020399
21:00+3nne31097100 1.3 1021511
15 april, thu
thu1500:00+3nne31191100 0.1 1021543
03:00+3nne41190100 0.1 1022532
06:00+3nne41186100 0.0 1021506
09:00+4nne41279100 0.0 1022525
12:00+4ne51281100 0.1 1022579
15:00+5ne51381100 0.7 1022702
18:00+6ne51478100 0.1 1022802
21:00+5ne51485100 0.2 1022780
16 april, fri
fri1600:00+5ne61486100 0.1 1022650
03:00+4ne51387100 0.2 1022531
06:00+4ne51490100 0.3 1023503
09:00+5ne51287100 0.4 1024527
12:00+8ne51077100 0.0 1024656
15:00+11ene51068100 0.0 10251121
18:00+11ene51162100 0.0 10251180
21:00+8ene513619 0.0 1027772